BEIDOU-3 M12 (43603 NORAD) Tracking and Keplerian Element Data

This shows tracking and keplerian element data for the satellite.

Feedback or suggestion? Click here.




ElementValue
Catalog43603
NameBEIDOU-3 M12
Epoch Orbit48
Epoch Day262.45848728
Epoch Year2018
RAAN277.4943
Inclination55.0123
Eccentricity0.0003529
Argument of Perigee296.3078
Mean Anonmoly63.6977
Mean Motion1.86231706
Decay Rate2.6E-07
L11 43603U 18067B 18262.45848728 .00000026 00000-0 00000-0 0 9991
L22 43603 55.0123 277.4943 0003529 296.3078 63.6977 1.86231706 488

Live tracking and technical data element details for BEIDOU-3 M12 (NORAD 43603). BEIDOU-3 M12 can be tracked NOW for your location showing map with azimuth and elevation plus other details from your city location.

Track the satellite on the map from your city or location and see movement details for azimuth, elevation, latitude, longitude, range, height, and movement on the map or in text.







IsCatalogInMostPopularTable: catalog: 43603, numindb: 34
Update: records affected: 1



GetName: 43603 BEIDOU-3 M12

Hit Count: updated at: Tue, 20 Nov 2018 11:58:39 GMT